ATV451 EDDS-EDNY

Flight info

Callsign ATV451
Flight time 0h 22m
Altitude 15000
Route SUL3H SUL DCT USETI T732 GARMO
Aircraft DH8D/M-SDE2E3FGRY/H

Departure

Time 2026-05-09 13:08
Airport Stuttgart Airport (EDDS)

Arrival

Time 2026-05-09 13:30
Airport Bodensee Airport Friedrichshafen (EDNY)
Time Latitude Longitude Altitude Speed Heading
2026-05-09 12:57 48.68948 9.20220 1288 ft 0 kts 164°
2026-05-09 13:04 48.68947 9.20220 1288 ft 0 kts 164°
2026-05-09 13:04 48.68935 9.20226 1287 ft 3 kts 163°
2026-05-09 13:04 48.68898 9.20240 1286 ft 6 kts 178°
2026-05-09 13:05 48.68870 9.20193 1288 ft 7 kts 252°
2026-05-09 13:05 48.68856 9.20122 1290 ft 9 kts 253°
2026-05-09 13:05 48.68839 9.20035 1293 ft 7 kts 249°
2026-05-09 13:05 48.68802 9.19975 1294 ft 8 kts 200°
2026-05-09 13:06 48.68742 9.19963 1293 ft 8 kts 172°
2026-05-09 13:06 48.68725 9.19969 1293 ft 0 kts 164°
2026-05-09 13:06 48.68714 9.19974 1292 ft 6 kts 165°
2026-05-09 13:07 48.68656 9.19998 1292 ft 10 kts 162°
2026-05-09 13:07 48.68599 9.20092 1289 ft 13 kts 106°
2026-05-09 13:07 48.68601 9.20157 1287 ft 0 kts 75°
2026-05-09 13:07 48.68621 9.20270 1284 ft 49 kts 74°
2026-05-09 13:08 48.68808 9.21245 1260 ft 137 kts 73°
2026-05-09 13:08 48.69091 9.22835 1456 ft 168 kts 76°
2026-05-09 13:08 48.69368 9.24625 2024 ft 182 kts 75°
2026-05-09 13:08 48.69707 9.26486 2639 ft 190 kts 73°
2026-05-09 13:09 48.70074 9.28373 3443 ft 188 kts 73°
2026-05-09 13:09 48.70444 9.30249 4123 ft 192 kts 73°
2026-05-09 13:09 48.70831 9.32198 4776 ft 200 kts 74°
2026-05-09 13:09 48.71250 9.34304 5086 ft 220 kts 74°
2026-05-09 13:10 48.71346 9.36679 5212 ft 242 kts 104°
2026-05-09 13:10 48.70401 9.38829 5261 ft 255 kts 142°
2026-05-09 13:10 48.68744 9.39692 5301 ft 256 kts 181°
2026-05-09 13:10 48.67174 9.38843 6301 ft 233 kts 210°
2026-05-09 13:11 48.65788 9.37715 7110 ft 225 kts 206°
2026-05-09 13:11 48.64532 9.36430 7737 ft 223 kts 231°
2026-05-09 13:11 48.63855 9.34327 8287 ft 224 kts 250°
2026-05-09 13:11 48.63342 9.32151 8921 ft 223 kts 251°
2026-05-09 13:12 48.62826 9.29957 9504 ft 223 kts 251°
2026-05-09 13:12 48.62305 9.27740 10046 ft 227 kts 251°
2026-05-09 13:12 48.61730 9.25516 10623 ft 227 kts 245°
2026-05-09 13:12 48.60974 9.23437 11143 ft 230 kts 241°
2026-05-09 13:13 48.60175 9.21358 11668 ft 231 kts 241°
2026-05-09 13:13 48.59366 9.19257 12195 ft 233 kts 241°
2026-05-09 13:13 48.58550 9.17135 12688 ft 235 kts 241°
2026-05-09 13:13 48.57731 9.15002 13184 ft 236 kts 241°
2026-05-09 13:14 48.56914 9.12877 13665 ft 237 kts 241°
2026-05-09 13:14 48.56076 9.10696 14122 ft 239 kts 242°
2026-05-09 13:16 48.49661 8.94402 15194 ft 312 kts 229°
2026-05-09 13:16 48.47807 8.92636 15086 ft 324 kts 200°
2026-05-09 13:16 48.45551 8.92420 15052 ft 331 kts 172°
2026-05-09 13:16 48.43446 8.93777 15069 ft 334 kts 149°
2026-05-09 13:17 48.41547 8.95792 15048 ft 336 kts 145°
2026-05-09 13:17 48.39663 8.97893 15045 ft 337 kts 144°
2026-05-09 13:17 48.37806 9.00001 15038 ft 337 kts 144°
2026-05-09 13:17 48.35941 9.02136 15046 ft 338 kts 143°
2026-05-09 13:18 48.34065 9.04296 15042 ft 338 kts 143°
2026-05-09 13:18 48.32204 9.06447 15050 ft 338 kts 143°
2026-05-09 13:18 48.30352 9.08594 15053 ft 338 kts 143°
2026-05-09 13:18 48.28502 9.10742 15054 ft 338 kts 143°
2026-05-09 13:19 48.26638 9.12904 15056 ft 339 kts 143°
2026-05-09 13:19 48.24772 9.15072 15053 ft 338 kts 143°
2026-05-09 13:19 48.22917 9.17227 15051 ft 338 kts 143°
2026-05-09 13:19 48.21049 9.19398 15054 ft 338 kts 143°
2026-05-09 13:20 48.19194 9.21552 15059 ft 338 kts 143°
2026-05-09 13:20 48.17334 9.23711 15049 ft 338 kts 143°
2026-05-09 13:20 48.15502 9.25836 15049 ft 338 kts 143°
2026-05-09 13:20 48.13627 9.28009 15052 ft 338 kts 143°
2026-05-09 13:21 48.11780 9.30148 15041 ft 338 kts 143°
2026-05-09 13:21 48.09909 9.32313 15047 ft 338 kts 143°
2026-05-09 13:21 48.08053 9.34458 15057 ft 338 kts 143°
2026-05-09 13:21 48.06205 9.36591 15053 ft 339 kts 143°
2026-05-09 13:22 48.04348 9.38735 15046 ft 339 kts 143°
2026-05-09 13:22 48.02478 9.40891 15051 ft 339 kts 143°
2026-05-09 13:22 48.00603 9.43051 15048 ft 339 kts 143°
2026-05-09 13:23 47.93002 9.51787 13278 ft 347 kts 143°
2026-05-09 13:23 47.91106 9.53969 12618 ft 339 kts 143°
2026-05-09 13:24 47.89270 9.56078 11984 ft 331 kts 143°
2026-05-09 13:24 47.87472 9.58142 11352 ft 325 kts 143°
2026-05-09 13:24 47.85764 9.60326 10380 ft 329 kts 132°
2026-05-09 13:24 47.84818 9.63288 9719 ft 319 kts 101°
2026-05-09 13:25 47.84920 9.66522 9196 ft 306 kts 77°
2026-05-09 13:25 47.85348 9.69575 8351 ft 308 kts 86°
2026-05-09 13:25 47.83500 9.74597 7692 ft 272 kts 145°
2026-05-09 13:26 47.81942 9.76084 7411 ft 261 kts 148°
2026-05-09 13:26 47.80372 9.77415 6915 ft 258 kts 157°
2026-05-09 13:26 47.78643 9.77651 6383 ft 254 kts 193°
2026-05-09 13:26 47.77152 9.76337 5866 ft 251 kts 228°
2026-05-09 13:27 47.76165 9.74231 5376 ft 248 kts 239°
2026-05-09 13:27 47.75288 9.72076 4872 ft 247 kts 239°
2026-05-09 13:27 47.74413 9.69884 4340 ft 247 kts 239°
2026-05-09 13:27 47.73534 9.67663 3643 ft 253 kts 240°
2026-05-09 13:28 47.72671 9.65450 3233 ft 245 kts 240°
2026-05-09 13:28 47.71846 9.63324 2953 ft 227 kts 241°
2026-05-09 13:28 47.71109 9.61420 2705 ft 200 kts 240°
2026-05-09 13:28 47.70452 9.59728 2453 ft 177 kts 241°
2026-05-09 13:29 47.69881 9.58249 2230 ft 156 kts 241°
2026-05-09 13:29 47.69377 9.56946 2086 ft 135 kts 241°
2026-05-09 13:29 47.68922 9.55747 1957 ft 136 kts 242°
2026-05-09 13:29 47.68446 9.54526 1744 ft 136 kts 239°
2026-05-09 13:30 47.67976 9.53336 1567 ft 136 kts 242°
2026-05-09 13:30 47.67509 9.52118 1387 ft 132 kts 240°
2026-05-09 13:30 47.67128 9.51136 1359 ft 77 kts 241°
2026-05-09 13:30 47.66964 9.50751 1354 ft 27 kts 222°
2026-05-09 13:31 47.66862 9.50654 1352 ft 14 kts 210°
2026-05-09 13:31 47.66778 9.50613 1351 ft 11 kts 150°
2026-05-09 13:31 47.66783 9.50725 1353 ft 14 kts 60°
2026-05-09 13:31 47.66838 9.50869 1354 ft 17 kts 61°
2026-05-09 13:32 47.66903 9.51037 1356 ft 20 kts 60°
2026-05-09 13:32 47.67048 9.51408 1361 ft 21 kts 61°
2026-05-09 13:32 47.67124 9.51606 1364 ft 22 kts 60°
2026-05-09 13:33 47.67202 9.51807 1367 ft 21 kts 60°
2026-05-09 13:33 47.67258 9.51953 1368 ft 12 kts 61°
2026-05-09 13:33 47.67270 9.52049 1370 ft 8 kts 135°
2026-05-09 13:33 47.67254 9.52060 1369 ft 0 kts 182°